This demonstration page uses our WeatherBlox Daily Observations layout. Learn more.

Left ArrowRight Arrow

39.08367, -84.50855

Hourly Observations for February 9, 2016

Temp ( °F °C ) Dew Point ( °F °C ) Humidity (%) Winds ( mph kmh ) Pressure ( in mb ) Visibility ( mi km ) Precip ( " mm )
12:33 am 00:33 Cloudy with Light Snow 24 -4.4 20 -6.7 84 84 W 12 19 29.83 1010 4 6 N/A
12:53 am 00:53 Cloudy with Light Snow 24 -4.4 20 -6.7 84 84 W 10 17 29.77 1008 4 6 N/A
1:39 am 01:39 Cloudy with Light Snow 23 -5 19 -7.2 85 85 W 12 19 29.83 1010 2 3 N/A
1:53 am 01:53 Cloudy with Light Snow 23 -5 19 -7.2 85 85 WSW 13 20 29.76 1008 2 3 N/A
1:58 am 01:58 Cloudy with Light Snow 23 -5 18 -7.8 81 81 W 12 19 29.80 1009 3 5 N/A
2:53 am 02:53 Cloudy with Light Snow 22 -5.6 17 -8.3 82 82 WSW 15 24 29.76 1008 3 5 N/A
3:24 am 03:24 Cloudy with Light Snow 21 -6 18 -8 86 86 WSW 9 15 29.80 1009 3 5 N/A
3:48 am 03:48 Cloudy with Light Snow 21 -6 18 -8 86 86 WSW 12 19 29.80 1009 3 4 N/A
3:53 am 03:53 Cloudy with Light Snow 22 -5.6 17 -8.3 82 82 W 13 20 29.76 1008 2 3 N/A
4:04 am 04:04 Cloudy with Light Snow 22 -5.6 17 -8.3 82 82 WSW 13 20 29.80 1009 3 5 N/A
4:16 am 04:16 Cloudy with Light Snow 21 -6 18 -8 86 86 WSW 10 17 29.80 1009 3 4 N/A
4:36 am 04:36 Cloudy with Light Snow 21 -6 18 -8 86 86 WSW 9 15 29.80 1009 3 5 N/A
4:53 am 04:53 Cloudy with Light Snow 22 -5.6 18 -7.8 85 85 SW 9 15 29.76 1008 3 5 N/A
5:26 am 05:26 Cloudy with Light Snow 21 -6 18 -8 86 86 SW 10 17 29.80 1009 2 3 N/A
5:31 am 05:31 Cloudy with Light Snow 22 -5.6 18 -7.8 85 85 WSW 12 19 29.83 1010 2 3 N/A
5:53 am 05:53 Mostly Cloudy with Light Snow 21 -6.1 19 -7.2 92 92 SW 10 17 29.77 1008 1 2 N/A
6:53 am 06:53 Cloudy with Light Snow 21 -6.1 18 -7.8 88 88 WSW 12 19 29.78 1009 2 2 0.01 0.25
7:22 am 07:22 Cloudy with Light Snow 21 -6 18 -8 86 86 WSW 10 17 29.83 1010 3 4 N/A
7:31 am 07:31 Cloudy with Light Snow 21 -6.1 18 -7.8 88 88 SW 12 19 29.83 1010 4 6 N/A
7:42 am 07:42 Cloudy with Light Snow 21 -6 18 -8 86 86 SW 10 17 29.83 1010 4 6 N/A
7:50 am 07:50 Cloudy with Light Snow 21 -6 18 -8 86 86 WSW 10 17 29.83 1010 3 4 N/A
7:53 am 07:53 Cloudy with Light Snow 21 -6.1 18 -7.8 88 88 SW 10 17 29.80 1009 3 5 N/A
8:53 am 08:53 Cloudy with Light Snow 21 -6.1 17 -8.3 85 85 WSW 13 20 29.81 1010 3 5 N/A
9:53 am 09:53 Cloudy with Light Snow 22 -5.6 17 -8.3 82 82 WSW 12 19 29.82 1010 4 6 N/A
10:53 am 10:53 Cloudy 24 -4.4 18 -7.8 77 77 WSW 13 20 29.82 1010 10 16 N/A
11:53 am 11:53 Cloudy 24 -4.4 17 -8.3 75 75 W 16 26 29.82 1010 10 16 N/A
12:53 pm 12:53 Cloudy 24 -4.4 17 -8.3 75 75 WSW 17 28 29.81 1010 10 16 N/A
1:53 pm 13:53 Cloudy with Light Snow 24 -4.4 19 -7.2 81 81 W 13 20 29.81 1010 3 5 N/A
2:53 pm 14:53 Cloudy with Light Snow 25 -3.9 17 -8.3 72 72 W 16 26 29.82 1010 5 8 N/A
3:07 pm 15:07 Cloudy with Light Snow 24 -4.4 17 -8.3 75 75 WSW 15 24 29.85 1011 2 3 N/A
3:22 pm 15:22 Cloudy with Light Snow 25 -4 19 -7 80 80 WSW 13 20 29.85 1011 1 2 N/A
3:34 pm 15:34 Cloudy with Light Snow 24 -4.4 19 -7.2 81 81 WSW 12 19 29.88 1012 1 1 N/A
3:53 pm 15:53 Cloudy with Light Snow 24 -4.4 20 -6.7 84 84 W 9 15 29.84 1011 2 2 N/A
4:20 pm 16:20 Cloudy with Light Snow 25 -4 18 -8 74 74 W 14 22 29.88 1012 3 5 N/A
4:22 pm 16:22 Cloudy with Light Snow 25 -4 18 -8 74 74 W 14 22 29.88 1012 3 4 N/A
4:30 pm 16:30 Cloudy with Haze 25 -4 18 -8 74 74 W 12 19 29.91 1013 5 8 N/A
4:51 pm 16:51 Cloudy with Light Snow 25 -4 19 -7 80 80 W 13 20 29.91 1013 1 2 N/A
4:53 pm 16:53 Cloudy with Light Snow 24 -4.4 19 -7.2 81 81 W 12 19 29.88 1012 1 2 N/A
5:34 pm 17:34 Cloudy with Light Snow 24 -4.4 20 -6.7 84 84 W 9 15 29.94 1014 2 3 N/A
5:53 pm 17:53 Cloudy with Haze 24 -4.4 18 -7.8 77 77 W 13 20 29.90 1013 6 10 N/A
6:18 pm 18:18 Cloudy with Light Snow 25 -4 18 -8 74 74 W 16 26 29.97 1015 2 3 N/A
6:53 pm 18:53 Cloudy with Light Snow 24 -4.4 19 -7.2 81 81 W 13 20 29.93 1014 2 3 N/A
7:53 pm 19:53 Cloudy with Light Snow 22 -5.6 17 -8.3 82 82 W 13 20 29.94 1014 2 3 N/A
8:23 pm 20:23 Cloudy 23 -5 15 -9.4 72 72 W 12 19 29.97 1015 9 14 N/A
8:53 pm 20:53 Cloudy 23 -5 15 -9.4 72 72 W 15 24 29.95 1014 10 16 N/A
9:53 pm 21:53 Cloudy 21 -6.1 14 -10 74 74 W 18 30 29.96 1015 10 16 N/A
10:53 pm 22:53 Cloudy 20 -6.7 12 -11.1 71 71 W 15 24 29.98 1015 10 16 N/A
11:00 pm 23:00 Cloudy 19 -7 12 -11 73 73 W 14 22 30.00 1016 10 16 N/A
11:23 pm 23:23 Partly Cloudy 18 -7.8 11 -11.7 74 74 W 10 17 30.00 1016 10 16 N/A
11:53 pm 23:53 Mostly Cloudy 18 -7.8 10 -12.2 71 71 W 14 22 29.99 1016 10 16 N/A

Powered by AerisWeather